Temperature
15 15 16 16 19 20 19 18 18 17 16 14 14 15 16 16 16 15 10 10 11 11 11 12 12 13 13 13 13 14 14 14 14 14 14 14 14 14 14 14 14 14 14 14 14 14 14 14 14
15 15 16 17 20 20 19 18 17 16 15 13 13 14 14 13 11 10 9 10 10 11 11 12 12 12 13 13 13 13 13 14 14 14 14 14 14 14 14 14 14 14 14 14 14 14 14 14 14
15 15 16 18 19 20 19 17 16 14 13 13 13 12 13 11 9 9 9 10 10 10 11 12 12 12 12 13 13 13 13 13 13 14 14 14 14 14 14 14 14 14 14 14 14 14 14 14 14
14 15 16 18 17 17 17 16 14 14 13 12 13 12 10 8 8 8 9 10 10 10 11 11 12 12 12 12 13 13 13 13 13 13 13 13 13 13 13 13 13 13 14 13 14 14 14 14 14
14 16 17 16 16 15 15 14 13 14 13 12 12 12 10 8 8 8 9 9 10 10 10 11 11 11 12 12 12 12 12 12 13 13 13 13 13 13 13 13 13 13 13 13 13 13 14 14 14
14 16 18 17 16 14 14 12 12 13 13 11 11 12 9 7 8 8 8 9 9 9 10 10 10 11 11 11 12 12 12 12 12 12 13 13 13 13 13 13 13 13 13 13 13 13 13 14 14
15 16 16 16 15 14 13 11 12 12 12 11 10 11 9 7 7 8 8 8 9 9 9 10 10 10 11 11 11 11 11 12 12 12 12 12 12 12 12 12 13 13 13 13 13 13 13 13 13
12 15 14 15 14 13 11 10 9 10 10 8 9 10 9 6 7 7 8 8 8 9 9 9 9 10 10 10 10 11 11 11 11 11 11 12 12 12 12 12 12 12 12 12 12 13 13 13 13
11 14 14 14 13 12 10 9 8 7 8 7 7 7 6 6 6 7 7 8 8 8 8 9 9 9 9 9 10 10 10 10 10 11 11 11 11 11 11 11 11 12 12 12 12 12 13 13 13
11 14 12 11 11 10 8 8 8 8 8 7 6 6 6 6 6 7 7 7 8 8 8 8 8 8 9 9 9 9 9 10 10 10 10 10 10 11 11 11 11 11 11 12 12 12 12 12 12
9 10 9 8 8 8 8 7 6 8 8 7 6 5 5 5 6 6 6 6 7 7 7 7 8 8 8 8 8 8 9 9 9 9 9 10 10 10 10 10 10 11 11 11 11 11 11 11 11
8 7 7 7 6 6 7 6 6 6 6 5 4 4 4 5 5 5 5 6 6 6 7 7 7 7 8 8 8 8 8 8 8 9 9 9 9 9 9 10 10 10 10 10 11 11 11 11 11
8 7 5 5 5 5 5 5 5 4 3 3 4 4 4 4 4 4 5 5 5 6 6 6 6 7 7 7 7 7 7 7 7 8 8 8 8 9 9 9 9 9 9 10 10 10 10 10 10
7 6 5 5 5 5 5 5 5 4 3 3 3 3 3 4 4 4 4 5 5 5 5 6 6 6 6 6 6 7 7 7 7 7 7 7 8 8 8 8 8 8 9 9 9 9 9 10 10
6 7 7 6 5 5 5 6 5 4 3 3 3 3 3 3 3 3 4 4 4 5 5 5 5 5 6 6 6 6 6 6 6 6 6 7 7 7 7 7 8 8 8 8 8 8 9 9 9
7 8 8 6 5 5 6 8 6 3 3 3 3 3 2 3 3 3 3 4 4 4 4 5 5 5 5 5 5 5 5 5 6 6 6 6 6 6 6 7 7 7 7 7 8 8 8 8 8
8 8 8 7 5 5 6 7 5 3 3 3 3 3 2 2 2 3 3 3 3 4 4 4 4 4 5 5 5 5 5 5 5 5 5 5 5 6 6 6 6 7 7 7 7 7 7 7 8
8 8 7 7 6 5 6 6 5 3 3 3 3 2 2 2 2 2 2 3 3 3 3 3 4 4 4 4 4 4 4 4 4 4 5 5 5 5 5 5 6 6 6 6 6 6 7 7 7
6 7 7 6 5 5 5 5 5 3 3 3 3 2 2 2 1 2 2 2 2 2 3 3 3 3 3 3 4 4 4 4 4 4 4 4 4 4 4 5 5 5 5 5 6 6 6 6 6
6 6 6 5 4 4 5 4 5 4 3 2 2 2 2 1 1 1 1 2 2 2 2 2 2 2 3 3 3 3 3 3 3 3 3 4 4 4 4 4 4 4 4 5 5 5 5 6 6
5 5 5 5 4 4 4 6 4 3 2 2 1 1 1 1 1 1 1 1 1 1 1 2 2 2 2 2 2 2 2 2 2 2 3 3 3 3 3 3 3 4 4 4 4 4 5 5 5
5 4 4 3 4 5 4 6 5 3 2 2 1 1 1 1 1 0 0 1 1 1 1 1 1 1 1 1 1 2 2 2 2 2 2 2 2 3 3 3 3 3 3 4 4 4 4 4 4
4 3 3 3 3 4 4 5 6 3 3 2 2 1 0 0 0 0 0 0 0 0 1 1 1 1 1 1 1 1 1 1 1 1 1 2 2 2 2 2 2 2 3 3 3 3 3 3 4
2 2 3 3 4 4 4 4 6 4 3 3 1 0 -0 -0 -0 -0 -0 -0 -0 0 0 0 0 0 0 0 0 0 0 1 1 1 1 1 1 1 2 2 2 2 2 2 3 3 3 3 3
2 4 5 5 5 6 2 3 4 3 1 1 1 -0 -1 -1 -1 -1 -1 -1 -1 -1 -0 -0 -0 -0 -0 -0 -0 -0 -0 -0 0 0 0 0 1 1 1 1 1 1 2 2 2 2 2 2 3
2 3 5 6 6 6 2 3 4 1 -0 -1 -1 -1 -1 -1 -1 -1 -1 -1 -1 -1 -1 -1 -1 -1 -1 -1 -1 -1 -1 -1 -1 -1 -0 -0 -0 0 1 1 1 1 1 1 1 2 2 2 2
2 2 2 3 2 3 5 3 3 1 0 -1 -1 -1 -1 -1 -2 -2 -2 -2 -2 -1 -1 -1 -1 -1 -1 -1 -1 -1 -1 -1 -1 -1 -1 -1 -1 -1 -0 0 0 1 1 1 1 1 1 1 2
1 1 2 3 4 5 5 4 5 2 1 0 -1 -1 -1 -2 -2 -2 -2 -2 -2 -2 -2 -2 -2 -2 -2 -2 -2 -2 -1 -2 -1 -1 -1 -1 -1 -1 -1 -1 -0 -0 -0 0 0 0 1 1 1
-0 0 1 2 2 4 5 6 3 2 1 0 -1 -1 -2 -2 -2 -2 -2 -2 -2 -2 -2 -2 -2 -2 -2 -2 -2 -2 -2 -2 -2 -2 -2 -2 -2 -2 -2 -1 -1 -1 -1 -1 -0 -0 -0 0 0
-0 0 1 2 2 2 3 4 1 0 -1 -1 -2 -2 -2 -2 -2 -3 -3 -3 -3 -3 -3 -3 -3 -3 -3 -3 -3 -3 -2 -2 -2 -2 -3 -3 -3 -3 -2 -2 -2 -2 -1 -1 -1 -1 -1 -1 -0
Wind_Speed
7 4 2 2 4 3 6 4 3 4 3 2 2 2 2 2 1 3 4 4 3 2 3 4 7 8 9 10 11 10 10 9 9 10 9 9 9 8 9 9 9 10 10 10 11 12 12 12 12
5 2 2 2 5 7 6 6 5 3 3 3 2 1 2 3 4 4 3 4 3 2 3 4 7 8 9 9 10 10 10 9 9 9 9 9 9 9 8 8 9 9 9 10 11 11 11 11 12
2 1 1 2 5 7 6 4 5 4 3 3 3 2 1 2 3 3 4 2 2 3 4 5 7 8 9 10 9 9 9 10 10 9 9 9 9 9 8 8 8 9 9 9 9 10 11 11 11
1 1 1 3 7 6 4 3 4 5 4 2 3 4 3 4 3 4 3 2 3 4 5 6 7 8 9 10 10 10 9 10 10 10 9 8 9 8 8 8 8 8 8 8 8 9 10 10 10
0 2 4 5 7 5 3 1 3 4 3 3 3 4 4 3 5 4 4 3 4 5 6 6 7 9 9 9 10 9 10 9 9 10 10 9 8 8 8 7 7 7 7 7 7 8 9 9 9
1 2 5 8 8 5 3 1 3 3 3 3 3 4 4 4 5 4 4 4 5 5 6 7 8 9 9 9 9 9 9 9 9 9 10 9 9 7 7 7 7 6 6 7 7 7 8 8 8
2 2 5 7 7 7 4 1 2 3 4 2 2 3 4 3 4 3 4 4 5 6 6 7 6 7 8 9 10 9 9 9 10 10 10 10 9 7 6 6 6 5 5 6 6 7 7 7 7
1 2 4 6 8 6 3 1 1 1 2 0 1 2 3 1 2 2 4 5 6 6 6 6 6 6 6 6 9 9 9 9 10 11 11 9 8 7 6 5 5 5 5 5 5 6 6 6 6
1 3 6 6 6 5 3 2 0 1 2 1 1 1 2 3 2 4 4 5 5 6 6 6 6 6 5 5 6 7 8 9 9 8 9 7 5 5 4 4 5 5 4 4 4 5 5 5 5
0 3 4 2 2 3 3 2 2 2 2 2 1 2 3 4 3 4 4 4 5 5 6 6 6 6 5 5 5 5 5 5 6 6 5 5 4 4 4 5 4 5 4 3 3 4 4 3 3
1 1 1 1 1 2 3 2 1 4 4 3 2 1 3 4 3 3 3 3 2 3 5 6 6 6 5 4 4 4 4 4 4 5 5 4 4 3 3 3 3 2 2 1 2 3 2 1 2
3 2 2 1 1 1 2 3 2 3 3 1 0 1 2 4 3 2 2 2 2 3 4 5 6 6 5 4 3 3 3 3 3 4 4 4 3 3 3 2 3 2 1 1 1 1 1 1 2
2 2 2 2 3 1 1 3 3 4 3 1 1 1 2 2 3 2 1 2 2 3 4 5 6 6 6 4 3 3 3 3 3 2 3 3 3 2 3 2 2 3 2 1 2 1 1 2 2
3 4 2 1 0 1 2 3 4 5 4 3 3 2 2 2 3 2 1 2 2 2 3 4 5 6 6 4 3 3 2 2 2 2 3 3 3 3 3 2 2 3 3 2 2 2 2 2 2
3 2 1 1 2 2 3 5 7 5 5 5 4 3 3 3 3 2 1 0 1 1 2 3 4 5 5 5 4 2 2 2 2 3 3 3 3 3 3 2 2 3 4 3 3 2 2 2 2
1 2 3 1 2 3 5 8 4 5 7 7 6 5 4 4 4 2 1 0 1 1 2 3 3 4 5 5 4 3 2 2 2 2 3 3 3 4 3 2 3 3 4 3 3 2 2 3 3
2 3 5 3 2 3 6 8 4 5 7 8 6 6 5 4 4 2 1 1 0 1 1 2 3 4 5 5 4 3 2 2 2 2 3 4 4 4 4 3 3 4 4 3 3 3 3 3 3
3 4 5 5 2 4 7 9 6 6 8 8 7 6 5 5 4 3 2 1 1 1 1 2 3 4 4 4 4 3 2 2 2 3 3 4 4 5 4 4 4 4 3 3 3 4 3 3 3
2 4 6 6 4 5 8 10 8 6 7 8 7 6 5 5 4 3 2 2 1 0 1 2 3 3 3 3 2 2 2 2 2 3 3 4 4 5 5 4 4 4 4 4 5 4 4 3 2
3 5 6 5 4 5 7 10 8 6 7 6 6 5 4 4 4 3 3 2 1 1 1 1 2 2 3 3 2 2 3 3 3 3 4 4 4 5 5 5 4 4 4 5 5 4 3 3 3
5 6 6 6 6 4 6 7 5 3 5 5 5 5 5 4 4 3 3 2 2 2 1 2 2 2 3 3 3 3 3 3 3 3 3 4 5 5 5 6 5 5 4 4 5 5 5 4 4
5 5 7 7 6 4 3 5 4 3 4 5 5 5 5 4 4 4 3 3 3 2 2 2 2 2 3 3 3 3 3 4 5 4 4 5 5 5 5 6 6 6 5 5 5 5 6 6 5
3 4 5 6 6 6 4 5 4 2 4 5 5 5 5 4 4 4 4 3 3 2 2 2 2 3 3 3 3 4 4 4 5 5 5 5 5 5 5 6 6 6 6 6 6 6 7 6 7
2 2 2 3 4 6 4 6 4 3 4 4 4 4 4 3 4 4 4 3 3 2 2 2 3 3 3 3 4 5 5 6 6 6 6 5 4 5 5 6 6 6 6 7 6 6 8 7 8
2 2 2 3 4 4 2 6 5 2 3 4 5 5 4 3 4 4 4 3 3 3 3 3 3 4 4 4 5 5 5 6 6 6 5 5 5 5 6 6 6 6 7 7 7 7 7 8 8
3 3 3 4 5 4 4 6 3 2 3 4 4 4 4 3 4 4 4 3 3 3 4 4 4 4 4 5 5 5 5 5 5 6 6 6 5 5 7 7 7 7 7 7 7 7 7 7 8
3 3 2 2 3 5 5 5 6 4 4 3 3 4 4 4 4 4 4 4 4 4 4 4 4 5 5 5 6 6 6 6 6 6 6 5 5 6 7 7 7 7 7 7 7 6 7 7 7
1 2 3 4 4 6 5 6 4 5 5 4 4 4 4 4 5 4 4 4 4 4 5 4 4 5 5 5 6 5 6 6 6 6 6 6 6 7 7 7 7 7 7 7 7 7 7 7 7
4 4 4 3 4 5 5 4 1 4 4 5 5 5 5 5 5 5 5 4 5 5 4 4 4 5 5 5 6 6 6 6 6 6 7 6 6 7 7 7 7 7 7 7 7 7 7 7 7
4 5 6 5 5 5 6 5 2 2 2 4 5 5 5 5 5 5 5 5 5 5 4 5 5 5 6 6 6 6 6 6 6 6 7 7 7 7 7 8 7 7 7 7 7 8 7 7 8
Wind_Direction
336 328 281 230 196 203 221 206 193 164 161 130 88 109 116 93 55 85 35 28 12 18 14 25 33 40 44 45 47 51 56 59 61 64 69 71 72 78 83 86 89 91 90 89 91 89 86 86 87
334 315 236 214 218 214 213 202 189 171 140 137 124 121 120 96 39 41 25 12 15 47 33 40 44 46 48 50 49 53 56 58 60 63 61 66 71 72 78 84 89 91 90 88 89 87 86 87 87
338 339 206 185 216 224 201 173 171 141 128 156 139 88 86 59 31 15 2 2 45 61 47 51 53 52 51 51 51 55 58 58 59 60 60 61 67 69 71 79 85 88 89 89 91 90 89 89 89
262 158 155 208 211 226 219 157 161 163 145 125 151 119 102 45 14 8 15 53 83 66 54 59 56 54 51 51 53 54 57 59 61 59 59 60 62 66 68 71 78 85 89 93 96 95 93 90 91
305 193 192 209 219 215 205 185 184 192 177 147 161 145 120 62 28 38 53 68 75 62 48 59 54 55 52 52 56 54 53 57 62 60 59 58 59 62 66 66 74 82 88 91 97 100 99 94 92
166 200 214 217 212 204 195 195 202 197 182 169 166 159 124 63 38 48 61 68 69 63 52 55 51 52 53 53 53 52 53 53 58 60 58 55 53 57 64 67 71 76 85 89 93 100 102 101 98
206 202 223 214 208 207 197 184 220 205 187 184 208 177 140 61 33 57 75 71 68 64 56 51 51 52 51 48 48 50 51 51 52 54 53 51 51 52 57 62 67 69 78 88 89 95 103 104 106
22 171 200 208 208 208 185 171 16 268 192 128 217 184 154 56 36 69 84 70 59 55 51 46 48 48 44 48 47 50 51 51 53 53 46 46 49 49 49 57 60 64 70 84 92 92 101 103 110
252 209 215 210 208 194 174 190 340 17 132 114 98 38 59 103 94 78 70 61 49 42 35 33 38 42 40 47 49 52 55 51 52 53 45 42 44 44 41 44 54 59 62 77 97 98 108 109 113
318 216 219 227 217 171 165 197 202 177 176 192 154 58 85 113 107 84 67 61 44 29 25 23 26 30 37 45 53 51 54 52 43 42 37 26 23 28 32 41 47 57 57 76 100 106 123 142 140
83 164 153 99 98 155 179 185 217 211 222 212 196 132 125 128 115 94 70 61 52 35 28 22 19 24 32 32 44 37 37 39 36 35 24 20 22 26 28 29 33 55 60 85 117 158 152 157 155
117 82 87 90 69 205 207 196 204 247 241 316 176 135 143 142 135 116 80 40 35 37 27 20 17 16 22 27 32 38 28 24 22 21 22 16 11 9 0 1 351 340 346 323 248 235 194 201 197
142 134 85 69 76 93 169 218 226 242 235 211 192 158 164 172 162 144 102 50 36 35 22 16 13 15 13 20 22 29 23 14 8 15 10 4 2 357 348 331 337 330 316 308 295 260 248 232 219
123 124 116 36 263 248 219 249 237 233 208 204 211 210 215 203 190 160 87 32 19 28 17 11 14 10 9 10 12 13 11 4 357 356 358 359 351 338 333 323 320 315 303 287 279 269 254 244 233
130 135 149 302 266 246 250 250 234 218 210 218 225 229 235 224 206 184 162 7 348 21 18 15 10 7 4 4 1 360 356 354 348 343 340 346 342 327 320 311 306 304 304 284 270 261 250 242 239
184 211 234 260 268 251 251 251 223 213 216 227 231 232 236 229 217 206 192 287 310 42 21 10 6 360 359 356 352 349 350 357 349 343 339 335 328 320 311 305 304 299 290 276 265 251 245 237 236
195 237 254 259 265 256 246 255 247 226 222 228 230 227 233 230 219 215 221 238 203 81 26 1 360 358 356 354 347 340 352 356 350 345 341 333 324 315 308 299 300 290 283 273 262 251 246 249 244
233 250 254 259 271 264 255 258 258 240 228 231 229 227 234 231 221 220 233 220 155 107 44 4 358 359 355 354 343 342 344 346 341 337 337 330 318 312 309 299 292 287 276 265 261 265 255 249 254
249 255 266 277 289 274 263 268 268 245 234 231 226 227 236 235 226 221 213 202 160 92 22 0 357 357 355 348 335 317 304 301 307 319 319 316 318 312 302 297 289 283 266 264 266 262 257 249 249
241 255 270 277 287 283 280 277 273 249 232 231 232 237 253 243 229 230 228 212 215 241 320 330 343 343 340 332 318 285 291 282 289 302 302 302 311 312 305 298 292 283 276 260 258 258 257 259 232
251 255 268 281 296 266 283 267 240 231 226 229 240 247 260 248 241 235 237 236 239 251 277 291 309 316 326 326 320 320 308 298 292 293 293 301 302 300 299 296 291 283 277 262 257 253 251 253 241
258 262 269 272 277 267 282 273 237 228 227 229 239 250 262 253 253 256 248 250 256 271 268 277 288 302 315 316 312 304 296 297 292 283 282 291 291 292 293 293 289 282 274 267 258 254 256 252 246
266 292 269 260 256 261 250 258 251 208 225 237 244 250 256 258 264 267 260 253 264 283 276 271 283 291 305 301 298 293 292 295 298 290 281 284 286 288 289 288 286 281 276 270 260 254 253 252 249
258 267 243 228 238 248 242 246 255 211 232 245 249 257 261 271 278 273 271 270 272 287 287 277 281 289 293 290 291 290 291 296 299 290 286 285 285 287 290 290 288 284 280 274 268 259 251 251 254
250 256 260 242 239 251 221 247 257 237 246 253 254 260 262 269 277 282 283 282 288 286 289 283 283 291 296 294 287 284 288 290 290 292 283 285 282 286 287 292 287 282 281 279 274 263 255 251 252
215 242 254 268 270 275 234 246 263 234 252 256 257 263 266 274 281 283 280 284 287 293 292 288 287 290 299 298 292 284 282 283 287 292 290 283 283 284 287 286 284 284 284 282 277 266 256 252 250
205 211 263 262 271 266 251 261 262 211 226 239 253 263 271 277 283 284 288 284 285 292 294 287 286 289 294 293 290 286 285 281 284 287 288 281 286 292 289 284 283 285 284 280 277 270 264 259 254
293 177 190 219 258 267 266 257 238 209 219 227 244 264 273 282 285 291 296 287 285 289 293 291 286 286 291 294 292 289 287 286 286 285 286 288 288 290 289 287 284 283 282 278 273 272 267 265 263
182 198 218 221 252 255 268 261 188 202 212 230 254 266 274 281 287 289 292 292 294 294 296 299 294 293 294 295 292 289 289 290 289 286 286 289 291 292 288 286 285 283 282 279 274 271 266 263 265
219 218 205 228 235 234 258 272 104 204 226 246 265 270 275 281 286 289 292 293 297 299 299 301 297 292 292 291 289 288 292 293 290 290 291 291 289 290 289 285 283 284 282 279 273 272 269 263 263
Height
1519 1519 1521 1524 1523 1521 1521 1524 1526 1530 1533 1537 1538 1537 1536 1538 1539 1546 1547 1544 1543 1544 1544 1544 1545 1546 1546 1546 1546 1546 1547 1547 1547 1547 1547 1547 1547 1547 1547 1547 1547 1547 1547 1546 1546 1546 1546 1546 1546
1519 1520 1523 1523 1518 1518 1520 1524 1528 1531 1536 1538 1539 1539 1539 1542 1545 1546 1544 1543 1543 1544 1544 1545 1545 1545 1546 1546 1546 1546 1547 1547 1547 1547 1547 1547 1547 1547 1547 1547 1547 1547 1547 1547 1547 1547 1547 1547 1547
1520 1521 1524 1521 1517 1514 1518 1526 1530 1535 1537 1538 1539 1540 1542 1544 1545 1545 1544 1543 1544 1544 1545 1545 1545 1545 1546 1546 1546 1546 1547 1547 1547 1547 1548 1548 1547 1548 1548 1548 1548 1548 1548 1548 1548 1548 1548 1548 1548
1521 1523 1524 1521 1520 1521 1523 1529 1533 1535 1537 1539 1539 1541 1544 1546 1545 1544 1543 1543 1544 1545 1545 1545 1545 1545 1546 1546 1546 1546 1547 1547 1547 1547 1547 1547 1547 1548 1548 1548 1548 1548 1548 1548 1548 1548 1548 1548 1549
1521 1522 1521 1521 1522 1525 1530 1533 1535 1534 1536 1539 1540 1540 1544 1545 1544 1543 1543 1543 1544 1544 1545 1545 1545 1545 1545 1546 1546 1546 1546 1547 1547 1547 1547 1547 1547 1547 1547 1548 1548 1548 1548 1548 1549 1549 1549 1549 1549
1522 1520 1517 1518 1521 1528 1532 1536 1536 1536 1537 1539 1540 1541 1544 1544 1543 1543 1543 1543 1544 1544 1544 1544 1545 1545 1545 1545 1545 1546 1546 1546 1546 1546 1546 1547 1547 1547 1547 1548 1548 1548 1548 1548 1549 1549 1549 1549 1549
1523 1520 1517 1518 1522 1527 1534 1537 1538 1537 1537 1540 1541 1541 1543 1544 1543 1543 1543 1544 1544 1544 1544 1544 1544 1545 1545 1545 1545 1545 1545 1545 1545 1545 1546 1546 1546 1546 1547 1547 1547 1547 1548 1548 1548 1548 1549 1549 1549
1522 1523 1522 1522 1523 1528 1536 1538 1539 1539 1539 1541 1542 1541 1543 1544 1542 1543 1543 1544 1544 1544 1544 1544 1543 1544 1544 1544 1544 1544 1544 1544 1544 1544 1545 1545 1546 1546 1546 1546 1546 1547 1547 1547 1547 1548 1548 1549 1549
1523 1523 1519 1523 1525 1530 1537 1538 1540 1540 1540 1541 1541 1543 1543 1542 1542 1543 1543 1543 1543 1543 1543 1543 1543 1543 1543 1543 1543 1543 1543 1543 1543 1543 1543 1544 1545 1545 1545 1545 1545 1546 1546 1546 1547 1547 1547 1548 1549
1524 1521 1524 1530 1531 1533 1537 1538 1540 1540 1540 1541 1541 1542 1542 1541 1542 1542 1541 1541 1542 1542 1542 1542 1542 1542 1542 1542 1542 1542 1542 1542 1542 1542 1542 1543 1543 1543 1543 1544 1544 1545 1545 1545 1546 1546 1547 1547 1548
1527 1527 1532 1534 1535 1536 1537 1539 1541 1540 1538 1540 1541 1541 1541 1541 1541 1541 1541 1541 1541 1541 1541 1540 1540 1541 1541 1541 1541 1541 1541 1541 1541 1541 1541 1541 1541 1541 1542 1542 1543 1543 1543 1544 1544 1545 1546 1546 1546
1530 1534 1535 1537 1537 1538 1538 1538 1540 1540 1540 1540 1541 1541 1540 1540 1539 1539 1539 1540 1540 1540 1540 1540 1539 1540 1540 1540 1540 1540 1540 1539 1539 1539 1539 1539 1539 1540 1540 1540 1541 1541 1541 1542 1542 1543 1544 1544 1545
1531 1535 1537 1538 1538 1538 1538 1538 1539 1540 1540 1539 1539 1539 1539 1539 1538 1538 1538 1538 1539 1538 1538 1538 1538 1538 1538 1538 1539 1539 1538 1538 1538 1538 1538 1538 1537 1537 1538 1538 1539 1539 1539 1540 1540 1541 1542 1542 1543
1534 1535 1537 1538 1538 1538 1538 1537 1538 1537 1538 1538 1538 1538 1538 1537 1537 1537 1537 1536 1536 1537 1537 1537 1537 1537 1537 1537 1537 1537 1537 1537 1537 1536 1536 1536 1536 1535 1536 1536 1536 1537 1537 1538 1538 1539 1539 1540 1541
1535 1535 1535 1537 1537 1537 1537 1534 1535 1536 1537 1536 1536 1536 1536 1536 1536 1535 1535 1534 1535 1535 1535 1536 1536 1536 1536 1535 1535 1536 1535 1535 1535 1535 1534 1534 1534 1533 1534 1534 1534 1534 1535 1535 1536 1536 1537 1538 1538
1534 1531 1529 1535 1536 1536 1537 1525 1532 1534 1534 1534 1534 1534 1534 1534 1534 1534 1534 1533 1533 1533 1534 1534 1534 1534 1534 1534 1533 1533 1534 1533 1533 1533 1532 1532 1532 1532 1532 1532 1532 1532 1532 1533 1533 1534 1534 1535 1535
1530 1526 1526 1531 1535 1534 1532 1525 1531 1532 1532 1532 1532 1532 1532 1532 1532 1532 1532 1532 1532 1531 1532 1532 1532 1532 1532 1532 1532 1532 1531 1531 1531 1530 1530 1530 1529 1529 1529 1529 1529 1529 1530 1530 1531 1531 1531 1532 1532
1525 1524 1526 1527 1532 1533 1529 1526 1529 1530 1529 1529 1530 1530 1530 1529 1530 1530 1530 1530 1530 1530 1530 1531 1530 1530 1530 1530 1530 1529 1529 1529 1528 1528 1528 1527 1527 1527 1526 1526 1526 1527 1527 1527 1528 1528 1528 1529 1529
1529 1528 1526 1528 1532 1531 1526 1524 1524 1526 1526 1526 1527 1528 1528 1527 1528 1528 1528 1528 1528 1528 1528 1529 1528 1528 1527 1527 1527 1526 1526 1526 1525 1525 1525 1525 1524 1524 1523 1523 1523 1523 1523 1524 1524 1525 1525 1525 1526
1530 1528 1527 1529 1531 1530 1525 1522 1521 1522 1523 1524 1525 1525 1525 1525 1525 1525 1525 1525 1526 1526 1526 1526 1526 1526 1525 1525 1524 1524 1523 1523 1522 1522 1522 1521 1521 1520 1520 1520 1519 1519 1519 1520 1521 1521 1521 1522 1523
1530 1528 1527 1528 1529 1529 1526 1515 1517 1520 1522 1523 1523 1523 1523 1523 1523 1523 1522 1523 1523 1523 1523 1524 1523 1523 1523 1522 1522 1521 1520 1520 1520 1519 1518 1518 1517 1517 1517 1516 1516 1516 1516 1516 1517 1517 1518 1518 1519
1527 1531 1531 1531 1526 1519 1525 1508 1510 1517 1518 1519 1520 1521 1521 1521 1521 1521 1520 1520 1521 1521 1521 1521 1521 1521 1520 1520 1519 1518 1517 1516 1516 1515 1514 1514 1514 1514 1513 1513 1512 1512 1512 1512 1513 1513 1514 1515 1515
1531 1533 1532 1530 1527 1523 1523 1516 1502 1514 1513 1515 1518 1518 1519 1519 1519 1519 1518 1518 1518 1518 1518 1518 1518 1518 1518 1517 1516 1515 1515 1514 1513 1512 1511 1510 1510 1510 1509 1509 1508 1508 1508 1508 1508 1509 1509 1510 1511
1536 1534 1531 1529 1525 1517 1519 1516 1498 1507 1511 1513 1515 1516 1516 1516 1517 1517 1516 1516 1515 1515 1515 1515 1515 1515 1515 1514 1513 1513 1511 1510 1509 1508 1507 1506 1506 1505 1505 1505 1504 1504 1504 1504 1504 1504 1504 1505 1506
1534 1528 1517 1514 1511 1505 1523 1518 1505 1510 1513 1514 1514 1514 1514 1514 1515 1514 1513 1513 1512 1512 1512 1512 1512 1512 1511 1511 1510 1509 1508 1507 1505 1504 1503 1502 1501 1501 1501 1500 1500 1500 1499 1499 1499 1499 1499 1500 1501
1532 1529 1520 1512 1504 1502 1519 1511 1505 1512 1513 1514 1513 1513 1513 1513 1512 1512 1511 1510 1510 1510 1509 1509 1509 1508 1508 1507 1506 1506 1504 1503 1502 1500 1500 1499 1497 1496 1496 1496 1495 1495 1495 1494 1494 1494 1494 1494 1495
1530 1529 1533 1526 1525 1517 1503 1507 1507 1510 1511 1512 1512 1511 1511 1510 1510 1509 1508 1508 1507 1507 1506 1506 1505 1505 1504 1504 1503 1502 1500 1499 1498 1497 1496 1495 1493 1492 1492 1491 1491 1490 1490 1490 1490 1489 1489 1489 1489
1535 1533 1531 1525 1515 1503 1497 1500 1495 1502 1505 1508 1509 1509 1508 1508 1507 1507 1506 1505 1505 1504 1503 1502 1502 1501 1500 1499 1498 1497 1496 1495 1494 1493 1491 1490 1489 1489 1487 1486 1486 1485 1485 1485 1484 1484 1484 1484 1484
1535 1534 1529 1524 1521 1507 1497 1491 1497 1499 1502 1505 1506 1506 1506 1505 1505 1504 1503 1502 1502 1501 1500 1499 1498 1497 1496 1495 1494 1493 1492 1490 1489 1488 1487 1486 1485 1484 1483 1482 1481 1480 1480 1479 1479 1478 1478 1478 1478
1531 1528 1528 1520 1518 1518 1504 1496 1501 1502 1503 1504 1504 1504 1504 1503 1502 1501 1501 1500 1499 1497 1496 1495 1494 1493 1492 1491 1490 1489 1487 1486 1484 1483 1482 1481 1480 1479 1478 1477 1476 1475 1474 1474 1474 1473 1473 1473 1473